contact: severine.martini@mio.osupytheas.fr, dominique.lefevre@mio.osupytheas.fr
Project:EMSO Ligure-ouest http://www.emso-fr.org/EMSO-France
Sensor Microcat Sea-Bird SBE37 SMP,  Serial 57510 
DOI : "https://doi.org/10.17882/97948" 
Title:EMSO Ligure Ouest : Data Bathybot capteur Microcat - deploiement 2023-04-28
Datetime,Profondeur,Latitude,Longitude,Temperature,Conductivite,Pression,Salinite
time,m,degree_north,degree_east,degree_C,S/m,db,PSU 
2023-11-03T00:00:49,2420,42.8014,5.9826,13.2985,4.60023,2453.627,38.4972
2023-11-03T00:03:49,2420,42.8014,5.9826,13.3050,4.59987,2453.641,38.4873
2023-11-03T00:06:49,2420,42.8014,5.9826,13.2975,4.59987,2453.649,38.4948
2023-11-03T00:09:49,2420,42.8014,5.9826,13.2987,4.60016,2453.649,38.4963
2023-11-03T00:12:49,2420,42.8014,5.9826,13.2975,4.59995,2453.627,38.4955
2023-11-03T00:15:49,2420,42.8014,5.9826,13.3027,4.60042,2453.627,38.4947
2023-11-03T00:18:49,2420,42.8014,5.9826,13.2976,4.60013,2453.604,38.4971
2023-11-03T00:21:49,2420,42.8014,5.9826,13.3061,4.60079,2453.627,38.4948
2023-11-03T00:24:49,2420,42.8014,5.9826,13.3004,4.60011,2453.672,38.4940
2023-11-03T00:27:49,2420,42.8014,5.9826,13.3036,4.60019,2453.627,38.4917
2023-11-03T00:30:49,2420,42.8014,5.9826,13.2996,4.60016,2453.604,38.4955
2023-11-03T00:33:49,2420,42.8014,5.9826,13.3031,4.60009,2453.627,38.4912
2023-11-03T00:36:49,2420,42.8014,5.9826,13.3026,4.60012,2453.649,38.4920
2023-11-03T00:39:49,2420,42.8014,5.9826,13.3002,4.60012,2453.649,38.4944
2023-11-03T00:42:49,2420,42.8014,5.9826,13.3044,4.60014,2453.627,38.4905
2023-11-03T00:45:49,2420,42.8014,5.9826,13.3030,4.59988,2453.627,38.4893
2023-11-03T00:48:49,2420,42.8014,5.9826,13.2993,4.60025,2453.627,38.4966
2023-11-03T00:51:49,2420,42.8014,5.9826,13.2988,4.60050,2453.649,38.4994
2023-11-03T00:54:49,2420,42.8014,5.9826,13.3016,4.60011,2453.604,38.4930
2023-11-03T00:57:49,2420,42.8014,5.9826,13.2989,4.60006,2453.641,38.4951
2023-11-03T01:00:49,2420,42.8014,5.9826,13.2970,4.59987,2453.604,38.4952
2023-11-03T01:03:49,2420,42.8014,5.9826,13.2970,4.59962,2453.641,38.4929
2023-11-03T01:06:49,2420,42.8014,5.9826,13.2999,4.59982,2453.627,38.4919
2023-11-03T01:09:49,2420,42.8014,5.9826,13.3000,4.60016,2453.627,38.4951
2023-11-03T01:12:49,2420,42.8014,5.9826,13.2971,4.59979,2453.664,38.4943
2023-11-03T01:15:49,2420,42.8014,5.9826,13.2978,4.59975,2453.627,38.4933
2023-11-03T01:18:49,2420,42.8014,5.9826,13.2975,4.59980,2453.582,38.4941
2023-11-03T01:21:50,2420,42.8014,5.9826,13.3041,4.59995,2453.604,38.4890
2023-11-03T01:24:49,2420,42.8014,5.9826,13.2980,4.59996,2453.604,38.4951
2023-11-03T01:27:49,2420,42.8014,5.9826,13.2991,4.59996,2453.627,38.4939
2023-11-03T01:30:49,2420,42.8014,5.9826,13.2985,4.59971,2453.627,38.4923
2023-11-03T01:33:49,2420,42.8014,5.9826,13.3004,4.59990,2453.627,38.4921
2023-11-03T01:36:49,2420,42.8014,5.9826,13.3041,4.59994,2453.604,38.4888
2023-11-03T01:39:49,2420,42.8014,5.9826,13.2976,4.60008,2453.627,38.4966
2023-11-03T01:42:49,2420,42.8014,5.9826,13.3008,4.59993,2453.604,38.4921
2023-11-03T01:45:49,2420,42.8014,5.9826,13.2991,4.60002,2453.604,38.4946
2023-11-03T01:48:49,2420,42.8014,5.9826,13.3029,4.59992,2453.627,38.4899
2023-11-03T01:51:49,2420,42.8014,5.9826,13.3001,4.59995,2453.590,38.4929
2023-11-03T01:54:49,2420,42.8014,5.9826,13.3021,4.60009,2453.582,38.4922
2023-11-03T01:57:49,2420,42.8014,5.9826,13.3000,4.60005,2453.604,38.4940
2023-11-03T02:00:49,2420,42.8014,5.9826,13.3008,4.59998,2453.582,38.4926
2023-11-03T02:03:49,2420,42.8014,5.9826,13.3011,4.60028,2453.604,38.4949
2023-11-03T02:06:49,2420,42.8014,5.9826,13.3017,4.59982,2453.567,38.4902
2023-11-03T02:09:49,2420,42.8014,5.9826,13.2988,4.59985,2453.582,38.4933
2023-11-03T02:12:49,2420,42.8014,5.9826,13.2985,4.59951,2453.582,38.4903
2023-11-03T02:15:49,2420,42.8014,5.9826,13.2998,4.59978,2453.604,38.4916
2023-11-03T02:18:49,2420,42.8014,5.9826,13.3064,4.59987,2453.627,38.4859
2023-11-03T02:21:49,2420,42.8014,5.9826,13.3034,4.60023,2453.559,38.4923
2023-11-03T02:24:49,2420,42.8014,5.9826,13.3014,4.60003,2453.604,38.4924
2023-11-03T02:27:49,2420,42.8014,5.9826,13.2973,4.59990,2453.604,38.4952
2023-11-03T02:30:49,2420,42.8014,5.9826,13.3002,4.59969,2453.582,38.4904
2023-11-03T02:33:49,2420,42.8014,5.9826,13.3005,4.59968,2453.582,38.4900
2023-11-03T02:36:49,2420,42.8014,5.9826,13.2973,4.59970,2453.559,38.4934
2023-11-03T02:39:49,2420,42.8014,5.9826,13.2973,4.59969,2453.582,38.4933
2023-11-03T02:42:49,2420,42.8014,5.9826,13.2975,4.59961,2453.582,38.4923
2023-11-03T02:45:49,2420,42.8014,5.9826,13.2977,4.59990,2453.604,38.4949
2023-11-03T02:48:49,2420,42.8014,5.9826,13.2977,4.59989,2453.582,38.4948
2023-11-03T02:51:49,2420,42.8014,5.9826,13.2975,4.59951,2453.596,38.4914
2023-11-03T02:54:49,2420,42.8014,5.9826,13.2973,4.59962,2453.582,38.4925
2023-11-03T02:57:48,2420,42.8014,5.9826,13.2976,4.59951,2453.582,38.4913
2023-11-03T03:00:49,2420,42.8014,5.9826,13.2975,4.59966,2453.582,38.4928
2023-11-03T03:03:49,2420,42.8014,5.9826,13.3021,4.59963,2453.582,38.4879
2023-11-03T03:06:49,2420,42.8014,5.9826,13.2973,4.59957,2453.582,38.4921
2023-11-03T03:09:49,2420,42.8014,5.9826,13.2971,4.59951,2453.582,38.4918
2023-11-03T03:12:49,2420,42.8014,5.9826,13.2979,4.59983,2453.582,38.4940
2023-11-03T03:15:49,2420,42.8014,5.9826,13.2973,4.59955,2453.582,38.4920
2023-11-03T03:18:49,2420,42.8014,5.9826,13.2975,4.59968,2453.559,38.4930
2023-11-03T03:21:49,2420,42.8014,5.9826,13.2973,4.59958,2453.559,38.4922
2023-11-03T03:24:49,2420,42.8014,5.9826,13.2972,4.59962,2453.574,38.4927
2023-11-03T03:27:49,2420,42.8014,5.9826,13.2966,4.59948,2453.559,38.4920
2023-11-03T03:30:49,2420,42.8014,5.9826,13.2970,4.59959,2453.582,38.4926
2023-11-03T03:33:49,2420,42.8014,5.9826,13.2972,4.59963,2453.559,38.4928
2023-11-03T03:36:49,2420,42.8014,5.9826,13.2973,4.59958,2453.582,38.4922
2023-11-03T03:39:49,2420,42.8014,5.9826,13.2971,4.59951,2453.582,38.4917
2023-11-03T03:42:49,2420,42.8014,5.9826,13.2971,4.59959,2453.559,38.4925
2023-11-03T03:45:49,2420,42.8014,5.9826,13.2970,4.59949,2453.544,38.4917
2023-11-03T03:48:49,2420,42.8014,5.9826,13.2971,4.59959,2453.559,38.4925
2023-11-03T03:51:49,2420,42.8014,5.9826,13.2970,4.59957,2453.559,38.4925
2023-11-03T03:54:49,2420,42.8014,5.9826,13.2971,4.59946,2453.559,38.4913
2023-11-03T03:57:49,2420,42.8014,5.9826,13.2974,4.59964,2453.582,38.4927
2023-11-03T04:00:49,2420,42.8014,5.9826,13.2988,4.59978,2453.582,38.4926
2023-11-03T04:03:49,2420,42.8014,5.9826,13.3035,4.59981,2453.582,38.4882
2023-11-03T04:06:49,2420,42.8014,5.9826,13.2977,4.59973,2453.582,38.4932
2023-11-03T04:09:49,2420,42.8014,5.9826,13.2974,4.59955,2453.567,38.4918
2023-11-03T04:12:49,2420,42.8014,5.9826,13.2970,4.59959,2453.544,38.4926
2023-11-03T04:15:49,2420,42.8014,5.9826,13.2972,4.59957,2453.544,38.4923
2023-11-03T04:18:49,2420,42.8014,5.9826,13.2980,4.59948,2453.544,38.4906
2023-11-03T04:21:49,2420,42.8014,5.9826,13.2974,4.59962,2453.567,38.4925
2023-11-03T04:24:49,2420,42.8014,5.9826,13.2970,4.59967,2453.582,38.4934
2023-11-03T04:27:49,2420,42.8014,5.9826,13.2977,4.59962,2453.604,38.4922
2023-11-03T04:30:49,2420,42.8014,5.9826,13.2970,4.60009,2453.559,38.4973
2023-11-03T04:33:49,2420,42.8014,5.9826,13.2996,4.60023,2453.582,38.4961
2023-11-03T04:36:49,2420,42.8014,5.9826,13.2985,4.59976,2453.537,38.4928
2023-11-03T04:39:49,2420,42.8014,5.9826,13.2973,4.59953,2453.544,38.4917
2023-11-03T04:42:49,2420,42.8014,5.9826,13.2977,4.59965,2453.582,38.4925
2023-11-03T04:45:49,2420,42.8014,5.9826,13.2973,4.59963,2453.559,38.4927
2023-11-03T04:48:49,2420,42.8014,5.9826,13.2981,4.59993,2453.604,38.4947
2023-11-03T04:51:49,2420,42.8014,5.9826,13.2975,4.59962,2453.567,38.4925
2023-11-03T04:54:49,2420,42.8014,5.9826,13.2968,4.59955,2453.559,38.4924
2023-11-03T04:57:49,2420,42.8014,5.9826,13.2970,4.41312,2453.559,36.7386
2023-11-03T05:00:49,2420,42.8014,5.9826,13.3018,4.41437,2453.582,36.7457
2023-11-03T05:03:49,2420,42.8014,5.9826,13.2974,4.59979,2453.559,38.4942
2023-11-03T05:06:49,2420,42.8014,5.9826,13.2978,4.59972,2453.582,38.4930
2023-11-03T05:09:49,2420,42.8014,5.9826,13.2973,4.59955,2453.604,38.4919
2023-11-03T05:12:49,2420,42.8014,5.9826,13.3027,4.59952,2453.582,38.4863
2023-11-03T05:15:49,2420,42.8014,5.9826,13.2970,4.59955,2453.559,38.4923
2023-11-03T05:18:49,2420,42.8014,5.9826,13.2966,4.59952,2453.604,38.4923
2023-11-03T05:21:49,2420,42.8014,5.9826,13.2971,4.59957,2453.582,38.4923
2023-11-03T05:24:49,2420,42.8014,5.9826,13.2968,4.59971,2453.590,38.4938
2023-11-03T05:27:49,2420,42.8014,5.9826,13.2968,4.59951,2453.582,38.4920
2023-11-03T05:30:50,2420,42.8014,5.9826,13.2969,4.59955,2453.582,38.4923
2023-11-03T05:33:49,2420,42.8014,5.9826,13.2975,4.59961,2453.627,38.4923
2023-11-03T05:36:49,2420,42.8014,5.9826,13.2979,4.59971,2453.612,38.4928
2023-11-03T05:39:49,2420,42.8014,5.9826,13.2993,4.59972,2453.582,38.4915
2023-11-03T05:42:49,2420,42.8014,5.9826,13.2993,4.59971,2453.582,38.4914
2023-11-03T05:45:49,2420,42.8014,5.9826,13.2988,4.59985,2453.582,38.4933
2023-11-03T05:48:49,2420,42.8014,5.9826,13.2968,4.59971,2453.582,38.4940
2023-11-03T05:51:49,2420,42.8014,5.9826,13.2970,4.59953,2453.604,38.4920
2023-11-03T05:54:49,2420,42.8014,5.9826,13.2996,4.59977,2453.604,38.4917
2023-11-03T05:57:49,2420,42.8014,5.9826,13.2984,4.59965,2453.627,38.4918
2023-11-03T06:00:49,2420,42.8014,5.9826,13.2973,4.59948,2453.641,38.4912
2023-11-03T06:03:49,2420,42.8014,5.9826,13.2974,4.59952,2453.649,38.4915
2023-11-03T06:06:49,2420,42.8014,5.9826,13.2970,4.59962,2453.641,38.4928
2023-11-03T06:09:49,2420,42.8014,5.9826,13.2970,4.59953,2453.627,38.4920
2023-11-03T06:12:49,2420,42.8014,5.9826,13.2974,4.59977,2453.641,38.4939
2023-11-03T06:15:49,2420,42.8014,5.9826,13.2969,4.59959,2453.612,38.4927
2023-11-03T06:18:49,2420,42.8014,5.9826,13.2969,4.59968,2453.627,38.4935
2023-11-03T06:21:49,2420,42.8014,5.9826,13.2970,4.59954,2453.604,38.4921
2023-11-03T06:24:49,2420,42.8014,5.9826,13.2973,4.59964,2453.604,38.4928
2023-11-03T06:27:49,2420,42.8014,5.9826,13.3030,4.59977,2453.582,38.4883
2023-11-03T06:30:49,2420,42.8014,5.9826,13.2969,4.59972,2453.627,38.4939
2023-11-03T06:33:49,2420,42.8014,5.9826,13.3031,4.59971,2453.604,38.4876
2023-11-03T06:36:49,2420,42.8014,5.9826,13.2973,4.59975,2453.627,38.4938
2023-11-03T06:39:49,2420,42.8014,5.9826,13.3024,4.60002,2453.604,38.4913
2023-11-03T06:42:49,2420,42.8014,5.9826,13.2994,4.59974,2453.604,38.4916
2023-11-03T06:45:49,2420,42.8014,5.9826,13.2971,4.59976,2453.649,38.4940
2023-11-03T06:48:49,2420,42.8014,5.9826,13.2969,4.59949,2453.641,38.4917
2023-11-03T06:51:49,2420,42.8014,5.9826,13.2974,4.59958,2453.627,38.4921
2023-11-03T06:54:49,2420,42.8014,5.9826,13.2967,4.59950,2453.627,38.4920
2023-11-03T06:57:49,2420,42.8014,5.9826,13.2983,4.59965,2453.627,38.4919
2023-11-03T07:00:49,2420,42.8014,5.9826,13.2968,4.59949,2453.604,38.4919
2023-11-03T07:03:49,2420,42.8014,5.9826,13.2968,4.59951,2453.604,38.4921
2023-11-03T07:06:49,2420,42.8014,5.9826,13.2972,4.59976,2453.664,38.4940
2023-11-03T07:09:49,2420,42.8014,5.9826,13.2971,4.59957,2453.627,38.4922
2023-11-03T07:12:49,2420,42.8014,5.9826,13.3002,4.59988,2453.604,38.4921
2023-11-03T07:15:49,2420,42.8014,5.9826,13.2982,4.59981,2453.641,38.4935
2023-11-03T07:18:49,2420,42.8014,5.9826,13.2975,4.59962,2453.612,38.4923
2023-11-03T07:21:49,2420,42.8014,5.9826,13.2970,4.59962,2453.649,38.4929
2023-11-03T07:24:49,2420,42.8014,5.9826,13.2973,4.59962,2453.627,38.4926
2023-11-03T07:27:49,2420,42.8014,5.9826,13.2978,4.59969,2453.672,38.4927
2023-11-03T07:30:49,2420,42.8014,5.9826,13.2973,4.59982,2453.672,38.4944
2023-11-03T07:33:49,2420,42.8014,5.9826,13.2976,4.59960,2453.627,38.4921
2023-11-03T07:36:49,2420,42.8014,5.9826,13.2978,4.59993,2453.649,38.4949
2023-11-03T07:39:49,2420,42.8014,5.9826,13.2984,4.59973,2453.649,38.4925
2023-11-03T07:42:49,2420,42.8014,5.9826,13.2968,4.59966,2453.649,38.4934
2023-11-03T07:45:49,2420,42.8014,5.9826,13.2971,4.59965,2453.672,38.4931
2023-11-03T07:48:49,2420,42.8014,5.9826,13.3000,4.59971,2453.627,38.4906
2023-11-03T07:51:50,2420,42.8014,5.9826,13.2971,4.59986,2453.649,38.4950
2023-11-03T07:54:49,2420,42.8014,5.9826,13.2974,4.59968,2453.649,38.4931
2023-11-03T07:57:49,2420,42.8014,5.9826,13.2970,4.59959,2453.657,38.4927
2023-11-03T08:00:49,2420,42.8014,5.9826,13.2978,4.59974,2453.649,38.4932
2023-11-03T08:03:49,2420,42.8014,5.9826,13.2976,4.59966,2453.649,38.4927
2023-11-03T08:06:49,2420,42.8014,5.9826,13.2978,4.59966,2453.649,38.4925
2023-11-03T08:09:49,2420,42.8014,5.9826,13.2970,4.59957,2453.672,38.4924
2023-11-03T08:12:49,2420,42.8014,5.9826,13.2973,4.59957,2453.695,38.4921
2023-11-03T08:15:49,2420,42.8014,5.9826,13.2989,4.59965,2453.657,38.4913
2023-11-03T08:18:49,2420,42.8014,5.9826,13.2992,4.59992,2453.695,38.4935
2023-11-03T08:21:49,2420,42.8014,5.9826,13.2972,4.59974,2453.657,38.4938
2023-11-03T08:24:49,2420,42.8014,5.9826,13.2983,4.59949,2453.657,38.4903
2023-11-03T08:27:49,2420,42.8014,5.9826,13.2972,4.59970,2453.672,38.4934
2023-11-03T08:30:49,2420,42.8014,5.9826,13.2971,4.59965,2453.695,38.4931
2023-11-03T08:33:49,2420,42.8014,5.9826,13.2968,4.59952,2453.717,38.4921
2023-11-03T08:36:49,2420,42.8014,5.9826,13.2980,4.59971,2453.672,38.4927
2023-11-03T08:39:49,2420,42.8014,5.9826,13.3073,4.59973,2453.709,38.4836
2023-11-03T08:42:49,2420,42.8014,5.9826,13.2976,4.59982,2453.695,38.4941
2023-11-03T08:45:49,2420,42.8014,5.9826,13.2978,4.59960,2453.695,38.4919
2023-11-03T08:48:49,2420,42.8014,5.9826,13.2970,4.59962,2453.672,38.4929
2023-11-03T08:51:49,2420,42.8014,5.9826,13.2973,4.59984,2453.702,38.4946
2023-11-03T08:54:49,2420,42.8014,5.9826,13.2972,4.59952,2453.717,38.4917
2023-11-03T08:57:49,2420,42.8014,5.9826,13.2971,4.59959,2453.695,38.4924
2023-11-03T09:00:49,2420,42.8014,5.9826,13.2973,4.59969,2453.695,38.4933
2023-11-03T09:03:49,2420,42.8014,5.9826,13.2970,4.59973,2453.717,38.4938
2023-11-03T09:06:49,2420,42.8014,5.9826,13.2991,4.59962,2453.695,38.4908
2023-11-03T09:09:49,2420,42.8014,5.9826,13.2971,4.59960,2453.717,38.4926
2023-11-03T09:12:49,2420,42.8014,5.9826,13.2973,4.59957,2453.695,38.4921
2023-11-03T09:15:49,2420,42.8014,5.9826,13.2995,4.59968,2453.695,38.4909
2023-11-03T09:18:49,2420,42.8014,5.9826,13.2968,4.59965,2453.732,38.4932
2023-11-03T09:21:49,2420,42.8014,5.9826,13.2972,4.60016,2453.695,38.4978
2023-11-03T09:24:49,2420,42.8014,5.9826,13.2968,4.59965,2453.695,38.4933
2023-11-03T09:27:49,2420,42.8014,5.9826,13.2975,4.59959,2453.717,38.4921
2023-11-03T09:30:49,2420,42.8014,5.9826,13.2978,4.59962,2453.717,38.4921
2023-11-03T09:33:49,2420,42.8014,5.9826,13.2970,4.59955,2453.717,38.4922
2023-11-03T09:36:49,2420,42.8014,5.9826,13.2971,4.59952,2453.702,38.4918
2023-11-03T09:39:49,2420,42.8014,5.9826,13.2971,4.59951,2453.717,38.4917
2023-11-03T09:42:49,2420,42.8014,5.9826,13.2966,4.59966,2453.740,38.4936
2023-11-03T09:45:49,2420,42.8014,5.9826,13.2969,4.59953,2453.702,38.4921
2023-11-03T09:48:49,2420,42.8014,5.9826,13.2968,4.59972,2453.740,38.4939
2023-11-03T09:51:49,2420,42.8014,5.9826,13.2974,4.59982,2453.717,38.4944
2023-11-03T09:54:49,2420,42.8014,5.9826,13.2979,4.59963,2453.725,38.4921
2023-11-03T09:57:49,2420,42.8014,5.9826,13.2972,4.59962,2453.717,38.4927
2023-11-03T10:00:49,2420,42.8014,5.9826,13.2970,4.59962,2453.740,38.4928
2023-11-03T10:03:49,2420,42.8014,5.9826,13.2972,4.59972,2453.740,38.4936
2023-11-03T10:06:49,2420,42.8014,5.9826,13.2968,4.59965,2453.717,38.4933
2023-11-03T10:09:49,2420,42.8014,5.9826,13.2982,4.59970,2453.740,38.4924
2023-11-03T10:12:49,2420,42.8014,5.9826,13.2968,4.59962,2453.740,38.4931
2023-11-03T10:15:49,2420,42.8014,5.9826,13.2986,4.59968,2453.732,38.4918
2023-11-03T10:18:49,2420,42.8014,5.9826,13.2972,4.59966,2453.717,38.4931
2023-11-03T10:21:49,2420,42.8014,5.9826,13.2970,4.59974,2453.695,38.4940
2023-11-03T10:24:49,2420,42.8014,5.9826,13.2971,4.59965,2453.754,38.4930
2023-11-03T10:27:49,2420,42.8014,5.9826,13.2985,4.59968,2453.717,38.4920
2023-11-03T10:30:50,2420,42.8014,5.9826,13.2968,4.59957,2453.740,38.4925
2023-11-03T10:33:49,2420,42.8014,5.9826,13.2970,4.59987,2453.680,38.4952
2023-11-03T10:36:49,2420,42.8014,5.9826,13.3000,4.59977,2453.762,38.4913
2023-11-03T10:39:49,2420,42.8014,5.9826,13.2973,4.59988,2453.695,38.4949
2023-11-03T10:42:49,2420,42.8014,5.9826,13.2970,4.59968,2453.748,38.4933
2023-11-03T10:45:49,2420,42.8014,5.9826,13.2973,4.59965,2453.717,38.4929
2023-11-03T10:48:49,2420,42.8014,5.9826,13.2964,4.59977,2453.740,38.4949
2023-11-03T10:51:49,2420,42.8014,5.9826,13.2976,4.59965,2453.702,38.4925
2023-11-03T10:54:49,2420,42.8014,5.9826,13.2967,4.59964,2453.717,38.4933
2023-11-03T10:57:49,2420,42.8014,5.9826,13.2975,4.59959,2453.717,38.4921
2023-11-03T11:00:49,2420,42.8014,5.9826,13.2970,4.59958,2453.717,38.4924
2023-11-03T11:03:49,2420,42.8014,5.9826,13.2973,4.59979,2453.717,38.4941
2023-11-03T11:06:49,2420,42.8014,5.9826,13.2971,4.59967,2453.717,38.4932
2023-11-03T11:09:49,2420,42.8014,5.9826,13.2969,4.59963,2453.725,38.4930
2023-11-03T11:12:49,2420,42.8014,5.9826,13.2972,4.60008,2453.717,38.4970
2023-11-03T11:15:49,2420,42.8014,5.9826,13.2969,4.59967,2453.725,38.4934
2023-11-03T11:18:49,2420,42.8014,5.9826,13.2981,4.59967,2453.740,38.4922
2023-11-03T11:21:49,2420,42.8014,5.9826,13.2981,4.59988,2453.740,38.4942
2023-11-03T11:24:49,2420,42.8014,5.9826,13.2979,4.60004,2453.717,38.4958
2023-11-03T11:27:49,2420,42.8014,5.9826,13.2984,4.59995,2453.717,38.4946
2023-11-03T11:30:49,2420,42.8014,5.9826,13.2988,4.59965,2453.695,38.4914
2023-11-03T11:33:49,2420,42.8014,5.9826,13.2975,4.59988,2453.740,38.4948
2023-11-03T11:36:49,2420,42.8014,5.9826,13.2976,4.60002,2453.740,38.4960
2023-11-03T11:39:49,2420,42.8014,5.9826,13.2974,4.60011,2453.725,38.4970
2023-11-03T11:42:49,2420,42.8014,5.9826,13.2978,4.60000,2453.740,38.4956
2023-11-03T11:45:49,2420,42.8014,5.9826,13.2970,4.59964,2453.695,38.4930
2023-11-03T11:48:49,2420,42.8014,5.9826,13.2972,4.59976,2453.695,38.4940
2023-11-03T11:51:49,2420,42.8014,5.9826,13.3031,4.60011,2453.717,38.4913
2023-11-03T11:54:49,2420,42.8014,5.9826,13.2990,4.60006,2453.695,38.4950
2023-11-03T11:57:49,2420,42.8014,5.9826,13.2987,4.60001,2453.695,38.4948
2023-11-03T12:00:49,2420,42.8014,5.9826,13.2982,4.59994,2453.732,38.4947
2023-11-03T12:03:49,2420,42.8014,5.9826,13.2973,4.59982,2453.672,38.4944
2023-11-03T12:06:49,2420,42.8014,5.9826,13.2970,4.59972,2453.740,38.4938
2023-11-03T12:09:49,2420,42.8014,5.9826,13.2972,4.59954,2453.717,38.4919
2023-11-03T12:12:49,2420,42.8014,5.9826,13.2966,4.59952,2453.695,38.4923
2023-11-03T12:15:49,2420,42.8014,5.9826,13.2974,4.59957,2453.695,38.4919
2023-11-03T12:18:49,2420,42.8014,5.9826,13.2975,4.59948,2453.717,38.4910
2023-11-03T12:21:49,2420,42.8014,5.9826,13.2968,4.59952,2453.754,38.4921
2023-11-03T12:24:49,2420,42.8014,5.9826,13.2971,4.59951,2453.740,38.4917
2023-11-03T12:27:50,2420,42.8014,5.9826,13.2968,4.59957,2453.717,38.4926
2023-11-03T12:30:49,2420,42.8014,5.9826,13.2970,4.59988,2453.717,38.4952
2023-11-03T12:33:49,2420,42.8014,5.9826,13.2978,4.59962,2453.740,38.4920
2023-11-03T12:36:49,2420,42.8014,5.9826,13.2973,4.59959,2453.702,38.4923
2023-11-03T12:39:49,2420,42.8014,5.9826,13.2975,4.59965,2453.717,38.4926
2023-11-03T12:42:49,2420,42.8014,5.9826,13.2981,4.59958,2453.740,38.4914
2023-11-03T12:45:49,2420,42.8014,5.9826,13.2978,4.59974,2453.709,38.4932
2023-11-03T12:48:49,2420,42.8014,5.9826,13.2977,4.59974,2453.672,38.4933
2023-11-03T12:51:49,2420,42.8014,5.9826,13.2974,4.59969,2453.680,38.4931
2023-11-03T12:54:49,2420,42.8014,5.9826,13.2978,4.59965,2453.709,38.4924
2023-11-03T12:57:50,2420,42.8014,5.9826,13.2971,4.59998,2453.717,38.4961
2023-11-03T13:00:49,2420,42.8014,5.9826,13.2968,4.59971,2453.717,38.4940
2023-11-03T13:03:49,2420,42.8014,5.9826,13.2973,4.59977,2453.672,38.4940
2023-11-03T13:06:49,2420,42.8014,5.9826,13.2970,4.59959,2453.680,38.4926
2023-11-03T13:09:49,2420,42.8014,5.9826,13.2972,4.59977,2453.695,38.4941
2023-11-03T13:12:49,2420,42.8014,5.9826,13.2973,4.59969,2453.672,38.4932
2023-11-03T13:15:49,2420,42.8014,5.9826,13.2974,4.59969,2453.695,38.4931
2023-11-03T13:18:49,2420,42.8014,5.9826,13.2981,4.59974,2453.695,38.4929
2023-11-03T13:21:50,2420,42.8014,5.9826,13.2970,4.59968,2453.672,38.4934
2023-11-03T13:24:49,2420,42.8014,5.9826,13.2970,4.59959,2453.672,38.4926
2023-11-03T13:27:49,2420,42.8014,5.9826,13.2972,4.59959,2453.635,38.4925
2023-11-03T13:30:49,2420,42.8014,5.9826,13.2970,4.59957,2453.672,38.4923
2023-11-03T13:33:49,2420,42.8014,5.9826,13.2966,4.59963,2453.687,38.4934
2023-11-03T13:36:49,2420,42.8014,5.9826,13.2970,4.59969,2453.672,38.4936
2023-11-03T13:39:49,2420,42.8014,5.9826,13.2968,4.59955,2453.680,38.4924
2023-11-03T13:42:49,2420,42.8014,5.9826,13.2971,4.59955,2453.649,38.4921
2023-11-03T13:45:49,2420,42.8014,5.9826,13.2968,4.59957,2453.649,38.4926
2023-11-03T13:48:49,2420,42.8014,5.9826,13.2969,4.59983,2453.695,38.4949
2023-11-03T13:51:49,2420,42.8014,5.9826,13.2969,4.59956,2453.649,38.4924
2023-11-03T13:54:49,2420,42.8014,5.9826,13.2970,4.59957,2453.649,38.4924
2023-11-03T13:57:49,2420,42.8014,5.9826,13.2973,4.59957,2453.635,38.4921
2023-11-03T14:00:49,2420,42.8014,5.9826,13.2967,4.59953,2453.649,38.4923
2023-11-03T14:03:49,2420,42.8014,5.9826,13.2968,4.59951,2453.627,38.4920
2023-11-03T14:06:49,2420,42.8014,5.9826,13.2966,4.59961,2453.649,38.4932
2023-11-03T14:09:49,2420,42.8014,5.9826,13.2970,4.59959,2453.649,38.4925
2023-11-03T14:12:49,2420,42.8014,5.9826,13.2973,4.60048,2453.635,38.5007
2023-11-03T14:15:49,2420,42.8014,5.9826,13.2968,4.59967,2453.672,38.4935
2023-11-03T14:18:49,2420,42.8014,5.9826,13.2968,4.59959,2453.664,38.4927
2023-11-03T14:21:49,2420,42.8014,5.9826,13.2965,4.59952,2453.627,38.4925
2023-11-03T14:24:49,2420,42.8014,5.9826,13.2966,4.59965,2453.627,38.4935
2023-11-03T14:27:49,2420,42.8014,5.9826,13.2975,4.59968,2453.649,38.4930
2023-11-03T14:30:49,2420,42.8014,5.9826,13.2973,4.59972,2453.649,38.4935
2023-11-03T14:33:49,2420,42.8014,5.9826,13.2966,4.59965,2453.672,38.4935
2023-11-03T14:36:49,2420,42.8014,5.9826,13.2967,4.59989,2453.649,38.4957
2023-11-03T14:39:49,2420,42.8014,5.9826,13.2968,4.59972,2453.649,38.4941
2023-11-03T14:42:49,2420,42.8014,5.9826,13.2974,4.59971,2453.627,38.4933
2023-11-03T14:45:49,2420,42.8014,5.9826,13.2970,4.59971,2453.649,38.4937
2023-11-03T14:48:49,2420,42.8014,5.9826,13.2978,4.60003,2453.649,38.4959
2023-11-03T14:51:49,2420,42.8014,5.9826,13.2972,4.59971,2453.649,38.4936
2023-11-03T14:54:49,2420,42.8014,5.9826,13.2976,4.59979,2453.612,38.4938
2023-11-03T14:57:49,2420,42.8014,5.9826,13.2971,4.59974,2453.627,38.4939
2023-11-03T15:00:50,2420,42.8014,5.9826,13.2997,4.60050,2453.672,38.4985
2023-11-03T15:03:49,2420,42.8014,5.9826,13.2970,4.60014,2453.649,38.4978
2023-11-03T15:06:49,2420,42.8014,5.9826,13.2977,4.60126,2453.627,38.5077
2023-11-03T15:09:49,2420,42.8014,5.9826,13.2991,4.60021,2453.627,38.4963
2023-11-03T15:12:49,2420,42.8014,5.9826,13.2984,4.59998,2453.672,38.4949
2023-11-03T15:15:49,2420,42.8014,5.9826,13.2987,4.60006,2453.649,38.4953
2023-11-03T15:18:49,2420,42.8014,5.9826,13.2975,4.59999,2453.604,38.4960
2023-11-03T15:21:49,2420,42.8014,5.9826,13.2984,4.60084,2453.627,38.5030
2023-11-03T15:24:49,2420,42.8014,5.9826,13.3000,4.60056,2453.627,38.4988
2023-11-03T15:27:49,2420,42.8014,5.9826,13.3005,4.60055,2453.627,38.4981
2023-11-03T15:30:50,2420,42.8014,5.9826,13.2998,4.60081,2453.627,38.5013
2023-11-03T15:33:49,2420,42.8014,5.9826,13.3024,4.60098,2453.627,38.5003
2023-11-03T15:36:49,2420,42.8014,5.9826,13.3069,4.60171,2453.627,38.5028
2023-11-03T15:39:49,2420,42.8014,5.9826,13.3002,4.60090,2453.604,38.5017
2023-11-03T15:42:49,2420,42.8014,5.9826,13.3037,4.60050,2453.604,38.4946
2023-11-03T15:45:49,2420,42.8014,5.9826,13.3007,4.60136,2453.627,38.5056
2023-11-03T15:48:49,2420,42.8014,5.9826,13.3039,4.60125,2453.604,38.5015
2023-11-03T15:51:49,2420,42.8014,5.9826,13.3029,4.60087,2453.627,38.4988
2023-11-03T15:54:49,2420,42.8014,5.9826,13.3066,4.60119,2453.627,38.4981
2023-11-03T15:57:49,2420,42.8014,5.9826,13.3050,4.60098,2453.627,38.4978
2023-11-03T16:00:50,2420,42.8014,5.9826,13.3041,4.60127,2453.582,38.5014
2023-11-03T16:03:49,2420,42.8014,5.9826,13.3007,4.60110,2453.649,38.5031